Find Starlink 35234

NORAD ID: 65601 Int'l Des: 2025-207 Owner: SPXS Country: US Constellation: starlink operational
LEOCIRCULARRETROGRADESSO

当前视图

正在加载3D地球...

About Starlink 35234

Starlink 35234 (NORAD 65601) is a starlink constellation satellite (v2 mini) launched Sep 13, 2025 by SPXS of US. It operates in LEO, CIRCULAR, RETROGRADE, SSO orbit with a mass of 575.00 kg.

即将过境

Passes for default location (London). Set your location on the main map for personalized predictions.

高度历史

Loading altitude history...

两行轨道根数

1 65601U 25207K 26238.18870875 .00004163 00000-0 29218-3 0 9998
2 65601 97.2839 301.8922 0001597 116.0717 244.0675 15.05661873 53769
Epoch: Aug 26, 2026 • Age: 16 hours

当前状态

高度 577.3 km
远地点 / 近地点 N/A
速度 7.57 km/s
星下点 -72.60°S, 49.1°E
发射日期 Sep 13, 2025
运行时间 0.9 years
类型 internet

技术详情

分类 Payload
质量 575.00 kg
干质量 530.00 kg
总质量 575.00 kg
长度 0.30 m
直径 4.10 m
跨度 29.00 m
形状 Box + pan
制造商 SPXS
平台类型 Starlink V2MO
阶段状态 In Orbit
所有者/国家 SPXS/US

Most Searched